Weather History for KGGE - October, 2013

Change the Weather History Date:

Saturday, October 19, 2013

  Actual Average Record
Temperature  
Mean Temperature 74 °F -  
Max Temperature 80 °F 77 °F 82 °F (2011)
Min Temperature 68 °F 53 °F 48 °F (2014)
Cooling Degree Days 9    
Growing Degree Days 24 (Base 50)    
Moisture  
Dew Point 70 °F    
Average Humidity 87    
Maximum Humidity 100    
Minimum Humidity 70    
Precipitation  
Precipitation 0.13 in - - ()
Sea Level Pressure  
Sea Level Pressure 29.92 in    
Wind  
Wind Speed 2 mph (WSW)    
Max Wind Speed 8 mph    
Max Gust Speed -    
Visibility 6 miles    
Events Fog , Rain , Thunderstorm    
Averages and records for this station are not official NWS values.
T = Trace of Precipitation, MM = Missing Value Source: NWS Daily Summary

Daily Weather History Graph

Daily Weather History Graph

Search for Another Location

Airport or City:

Trip Planner

Search our weather history database for the weather conditions in past years. The results will help you decide how hot, cold, wet, or windy it might be!

Date:

Astronomy

Oct. 19, 2013 Rise Set
Actual Time 7:25 AM EDT 6:38 PM EDT
Civil Twilight 6:59 AM EDT 7:03 PM EDT
Nautical Twilight 6:31 AM EDT 7:32 PM EDT
Astronomical Twilight 6:02 AM EDT 8:01 PM EDT
Moon 7:09 PM EDT (10/19) 7:58 AM EDT (10/19)
Length of Visible Light 12h 03m
Length of Day
11h 13m
Waxing Gibbous, 99% of the Moon is Illuminated
Oct 19
Waxing Gibbous
Oct 26
Last Quarter
Nov 3
New
Nov 10
First Quarter
Nov 17
Full

Hourly Weather History & Observations

Time (EDT) Temp. Heat Index Dew Point Humidity Pressure Visibility Wind Dir Wind Speed Gust Speed Precip Events Conditions
12:15 AM - - - N/A% 29.97 in 4.0 mi Calm Calm - N/A   Haze
12:35 AM - - - N/A% 29.96 in 3.0 mi ENE 3.5 mph - N/A   Overcast
12:55 AM - - - N/A% 29.96 in 3.0 mi Calm Calm - N/A   Overcast
1:15 AM - - - N/A% 29.97 in 4.0 mi Calm Calm - N/A   Haze
1:35 AM - - - N/A% 29.96 in 3.0 mi Calm Calm - N/A   Overcast
1:55 AM - - - N/A% 29.96 in 2.5 mi Calm Calm - N/A   Overcast
2:15 AM - - - N/A% 29.95 in 1.2 mi Calm Calm - N/A   Overcast
2:35 AM - - - N/A% 29.94 in 0.8 mi Calm Calm - N/A   Overcast
2:55 AM - - - N/A% 29.94 in 0.2 mi Calm Calm - N/A Fog Fog
3:15 AM - - - N/A% 29.94 in 0.2 mi Calm Calm - N/A Fog Fog
3:35 AM - - - N/A% 29.94 in 0.2 mi Calm Calm - N/A Fog Fog
3:55 AM - - - N/A% 29.94 in 0.2 mi Calm Calm - N/A Fog Fog
4:15 AM - - - N/A% 29.93 in 0.2 mi Calm Calm - N/A Fog Fog
4:35 AM - - - N/A% 29.93 in 0.2 mi Calm Calm - N/A Fog Fog
4:55 AM - - - N/A% 29.93 in 1.5 mi Calm Calm - N/A   Overcast
5:15 AM - - - N/A% 29.93 in 2.5 mi Calm Calm - N/A   Mostly Cloudy
5:35 AM - - - N/A% 29.93 in 4.0 mi Calm Calm - N/A   Haze
5:55 AM - - - N/A% 29.93 in 5.0 mi Calm Calm - N/A   Haze
6:15 AM - - - N/A% 29.93 in 0.8 mi Calm Calm - N/A   Mist
6:35 AM - - - N/A% 29.93 in 1.2 mi Calm Calm - N/A   Scattered Clouds
6:55 AM - - - N/A% 29.93 in 5.0 mi Calm Calm - N/A   Haze
7:15 AM - - - N/A% 29.93 in 5.0 mi Calm Calm - N/A   Haze
7:35 AM - - - N/A% 29.93 in 5.0 mi Calm Calm - N/A   Haze
7:55 AM - - - N/A% 29.93 in 5.0 mi Calm Calm - N/A   Haze
8:15 AM - - - N/A% 29.93 in 5.0 mi Calm Calm - N/A   Haze
8:35 AM - - - N/A% 29.93 in 5.0 mi Calm Calm - N/A   Haze
8:55 AM - - - N/A% 29.93 in 4.0 mi Calm Calm - N/A   Haze
9:15 AM - - - N/A% 29.94 in 4.0 mi South 6.9 mph - N/A Rain Rain
9:35 AM - - - N/A% 29.95 in 10.0 mi South 4.6 mph - 0.06 in   Overcast
9:55 AM - - - N/A% 29.95 in 10.0 mi SSW 5.8 mph - 0.06 in   Overcast
10:15 AM - - - N/A% 29.95 in 5.0 mi West 4.6 mph - N/A Thunderstorm Haze
10:35 AM - - - N/A% 29.95 in 7.0 mi West 4.6 mph - N/A   Overcast
10:55 AM - - - N/A% 29.95 in 10.0 mi West 3.5 mph - N/A   Overcast
11:15 AM - - - N/A% 29.95 in 7.0 mi West 3.5 mph - N/A   Overcast
11:35 AM - - - N/A% 29.95 in 7.0 mi West 3.5 mph - N/A   Overcast
11:55 AM 73.4 °F - 73.4 °F 100% 29.94 in 7.0 mi West 6.9 mph - N/A   Mostly Cloudy
12:15 PM 75.2 °F - 73.4 °F 94% 29.93 in 10.0 mi WSW 5.8 mph - N/A   Overcast
12:35 PM 77.0 °F - 73.4 °F 89% 29.93 in 10.0 mi West 8.1 mph - N/A   Overcast
12:55 PM 77.0 °F - 71.6 °F 83% 29.92 in 10.0 mi SW 5.8 mph - N/A   Overcast
2:15 PM 78.8 °F - 69.8 °F 74% 29.89 in 10.0 mi West 6.9 mph - N/A   Overcast
2:55 PM 78.8 °F - 69.8 °F 74% 29.88 in 10.0 mi WNW 6.9 mph - N/A   Overcast
3:15 PM 78.8 °F - 69.8 °F 74% 29.88 in 10.0 mi West 5.8 mph - N/A   Overcast
3:35 PM 80.6 °F 83.9 °F 69.8 °F 70% 29.88 in 10.0 mi WSW 5.8 mph - N/A   Mostly Cloudy
3:55 PM 78.8 °F - 69.8 °F 74% 29.88 in 10.0 mi West 4.6 mph - N/A   Mostly Cloudy
4:15 PM 78.8 °F - 69.8 °F 74% 29.88 in 10.0 mi West 4.6 mph - N/A   Overcast
4:35 PM 78.8 °F - 69.8 °F 74% 29.88 in 10.0 mi SW 4.6 mph - N/A   Mostly Cloudy
4:55 PM 77.0 °F - 71.6 °F 83% 29.88 in 10.0 mi Calm Calm - N/A   Overcast
5:15 PM 77.0 °F - 71.6 °F 83% 29.88 in 10.0 mi WSW 3.5 mph - N/A   Scattered Clouds
5:35 PM 77.0 °F - 71.6 °F 83% 29.88 in 10.0 mi South 4.6 mph - N/A   Mostly Cloudy
5:55 PM 75.2 °F - 73.4 °F 94% 29.88 in 10.0 mi SW 4.6 mph - N/A   Overcast
6:15 PM 73.4 °F - 73.4 °F 100% 29.88 in 1.8 mi SW 4.6 mph - 0.07 in Rain Light Rain
6:35 PM 73.4 °F - 73.4 °F 100% 29.89 in 7.0 mi Calm Calm - 0.07 in   Overcast
6:55 PM - - - N/A% 29.90 in 5.0 mi South 3.5 mph - 0.07 in   Haze
7:15 PM - - - N/A% 29.90 in 7.0 mi Calm Calm - N/A   Scattered Clouds
7:35 PM - - - N/A% 29.89 in 4.0 mi Calm Calm - N/A   Haze
7:55 PM - - - N/A% 29.90 in 4.0 mi Calm Calm - N/A   Haze
8:15 PM - - - N/A% 29.91 in 5.0 mi SW 3.5 mph - N/A   Haze
8:35 PM - - - N/A% 29.90 in 3.0 mi Calm Calm - N/A   Clear
8:55 PM - - - N/A% 29.91 in 4.0 mi Calm Calm - N/A   Haze
9:15 PM - - - N/A% 29.91 in 5.0 mi Calm Calm - N/A   Haze
9:35 PM - - - N/A% 29.92 in 4.0 mi West 4.6 mph - N/A   Haze
9:55 PM - - - N/A% 29.93 in 10.0 mi West 4.6 mph - N/A   Mostly Cloudy
10:15 PM 69.8 °F - 69.8 °F 100% 29.93 in 10.0 mi WNW 8.1 mph - N/A   Overcast
10:35 PM 69.8 °F - 68.0 °F 94% 29.93 in 10.0 mi WNW 4.6 mph - N/A   Mostly Cloudy
10:55 PM 68.0 °F - 68.0 °F 100% 29.93 in 10.0 mi NW 5.8 mph - N/A   Mostly Cloudy
11:15 PM 68.0 °F - 68.0 °F 100% 29.93 in 10.0 mi NNW 4.6 mph - N/A   Mostly Cloudy
11:35 PM 68.0 °F - 64.4 °F 88% 29.93 in 10.0 mi NW 3.5 mph - N/A   Overcast
11:55 PM 68.0 °F - 64.4 °F 88% 29.94 in 10.0 mi WNW 3.5 mph - N/A   Overcast